Погода в Караульном

Россия / Астраханская область     45°52′30″N   48°07′47″E
темп.,
°C
ветер,
м/с
пор.,
м/с
влажн.,
%
обл.,
%
осадки,
мм/ч
давл.,
гПа
погр.,
м
17 сентября, пт
пт1701:00+17ссв51135100 0.0 1015461
04:00+13ссв41043100 0.0 1016302
07:00+12ссв394699 0.0 1017347
10:00+16ссв563495 0.0 1018895
13:00+19ссв4427100 0.0 10171310
16:00+21ссв332449 0.0 10161616
19:00+16ююв34457 0.0 101760
22:00+13ююв015724 0.0 101811
18 сентября, сб
сб1801:00+15св115160 0.0 101817
04:00+15всв234494 0.0 101879
07:00+15св2441100 0.0 1018111
10:00+17всв344097 0.0 1019324
13:00+19юв233594 0.0 10181352
16:00+21вюв43315 0.0 10181664
19:00+15юв475031 0.0 1018111
22:00+13юв33605 0.0 102033
19 сентября, вс
вс1901:00+13в225821 0.0 101915
04:00+12в336053 0.0 101928
07:00+13в366289 0.0 102096
10:00+20вюв894078 0.0 10201358
13:00+22вюв893325 0.0 10201353
16:00+21вюв8938100 0.0 10191134
19:00+17в6125796 0.0 1019505
22:00+17в61358100 0.0 1019491
20 сентября, пн
пн2001:00+18в7145399 0.0 1019525
04:00+18вюв7145181 0.0 1018599
07:00+17в7145470 0.0 1018472
10:00+22вюв91235100 0.0 1018741
13:00+23вюв8104098 0.0 1017879
16:00+21юв7956100 0.0 1016798
19:00+18вюв47735 0.0 1017180
22:00+16вюв36896 0.0 1017116
21 сентября, вт
вт2101:00+16вюв349036 0.1 101650
04:00+16в3490100 0.1 101553
07:00+17вюв3785100 0.0 1015123
10:00+23юв6749100 0.0 1016572
13:00+23юв7849100 0.0 1016574
16:00+23юв5644100 0.0 1016601
19:00+19вюв376275 0.0 1016163
22:00+17юв356713 0.0 101674